EW2769 Weather Reports


Display with metric or nautical units.
time (UTC)temp
F
wind
direction
speed
MPH
gust
MPH
rain 1hr
in
rain 24hr
in
rain mn
in
humidity
%
barometer
mb
20260508024605 0 0.0 0.0 0.00 0.01 0.01 1004.7
20260508024510 39 256 0.0 2.0 0.00 0.14 0.00 57 1004.9
20260508023055 39 305 0.0 3.0 0.00 0.20 0.00 59 1004.8
20260508023053 0 0.0 0.0 0.00 0.01 0.01 1004.7
20260508021613 39 249 0.0 2.0 0.00 0.20 0.00 61 1004.7
20260508021534 0 0.0 0.0 0.00 0.01 0.01 1004.8
20260508020051 39 256 0.0 3.0 0.00 0.20 0.00 63 1004.8
20260508020028 0 0.0 0.0 0.00 0.01 0.01 1004.8
20260508014551 39 272 0.0 0.0 0.00 0.20 0.00 63 1004.7
20260508014531 0 0.0 0.0 0.00 0.01 0.01 1004.7
20260508013049 40 266 0.0 0.0 0.00 0.27 0.00 64 1004.8
20260508013019 0 0.0 0.0 0.00 0.01 0.01 1004.8
20260508011555 41 251 0.0 1.0 0.00 0.27 0.00 64 1004.8
20260508011517 0 0.0 0.0 0.00 0.01 0.01 1004.8
20260508010045 41 289 0.0 6.0 0.00 0.27 0.00 63 1004.7
20260508010010 0 0.0 0.0 0.00 0.01 0.01 1004.9
20260508004542 42 256 1.0 7.0 0.00 0.27 0.00 63 1004.8
20260508004505 0 0.0 0.0 0.00 0.01 0.01 1004.8
20260508003029 42 324 2.0 8.0 0.00 0.36 0.00 62 1004.6
20260508003002 0 0.0 0.0 0.00 0.01 0.01 1004.8
20260508001545 0 0.0 0.0 0.00 0.01 0.01 1004.8
20260508001534 43 329 2.0 8.0 0.00 0.36 0.00 62 1004.4
20260508000038 0 0.0 0.0 0.00 0.01 0.01 1004.7
20260508000028 43 328 5.0 14.0 0.00 0.36 0.00 61 1004.3
20260507234535 0 0.0 0.0 0.00 0.01 0.01 1004.6
20260507234531 43 299 8.0 13.0 0.00 0.36 0.00 59 1004.2
20260507233030 41 265 7.0 13.0 0.00 0.01 0.01 66 1004.6
20260507233021 44 302 4.0 16.0 0.00 0.42 0.00 59 1004.3
20260507231530 41 290 8.0 13.0 0.00 0.01 0.01 66 1004.7
20260507231518 45 312 7.0 19.0 0.00 0.42 0.00 57 1004.2
20260507230028 41 250 8.0 21.0 0.00 0.01 0.01 65 1004.6
20260507230017 45 296 7.0 15.0 0.00 0.42 0.00 59 1004.0
20260507224529 42 252 8.0 16.0 0.00 0.01 0.01 64 1004.6
20260507224519 45 293 7.0 16.0 0.00 0.42 0.00 59 1004.0
20260507223028 43 266 11.0 24.0 0.00 0.01 0.01 62 1004.4
20260507223005 45 179 8.0 19.0 0.00 0.50 0.00 57 1004.0
20260507221521 42 235 9.0 19.0 0.00 0.01 0.01 64 1004.4
20260507221503 46 271 6.0 15.0 0.00 0.50 0.00 55 1004.0
20260507220020 42 281 7.0 19.0 0.00 0.01 0.01 65 1004.3
20260507220002 47 299 6.0 18.0 0.00 0.50 0.00 53 1003.8
20260507214522 42 253 9.0 20.0 0.00 0.01 0.01 64 1004.2
20260507214502 47 323 7.0 23.0 0.00 0.50 0.00 53 1003.8
20260507213026 44 254 9.0 20.0 0.00 0.01 0.01 61 1004.1
20260507213003 48 328 6.0 17.0 0.00 0.56 0.00 55 1003.8
20260507211559 48 248 9.0 24.0 0.00 0.56 0.00 54 1003.9
20260507211519 43 295 8.0 16.0 0.00 0.01 0.01 63 1004.1
20260507210120 47 274 5.0 11.0 0.00 0.56 0.00 59 1003.8
20260507210018 43 257 9.0 17.0 0.00 0.01 0.01 65 1004.1
20260507204601 46 273 10.0 21.0 0.00 0.56 0.00 57 1003.7
20260507204518 43 250 6.0 17.0 0.00 0.01 0.01 66 1003.9
20260507203043 46 338 11.0 22.0 0.00 0.62 0.00 58 1003.8
20260507201541 46 308 7.0 23.0 0.00 0.62 0.00 58 1003.7
20260507201514 42 276 12.0 21.0 0.00 0.01 0.01 66 1004.1
20260507200052 46 298 15.0 26.0 0.00 0.62 0.00 56 1003.7
20260507200026 43 270 12.0 26.0 0.00 0.01 0.01 64 1003.9
20260507194540 47 323 9.0 23.0 0.00 0.62 0.00 57 1003.5
20260507194512 42 222 10.0 16.0 0.00 0.01 0.01 68 1004.1
20260507193104 47 323 7.0 27.0 0.00 0.78 0.00 58 1003.4
20260507191540 49 330 7.0 22.0 0.00 0.78 0.00 62 1003.2
20260507191509 42 286 9.0 17.0 0.00 0.01 0.01 75 1004.0
20260507190039 49 341 12.0 26.0 0.00 0.78 0.00 62 1003.2
20260507190020 42 287 6.0 15.0 0.00 0.01 0.01 86 1004.1
20260507184535 49 120 6.0 15.0 0.00 0.78 0.00 60 1003.2
20260507184506 43 242 6.0 14.0 0.00 0.01 0.01 87 1004.1
20260507183034 49 326 8.0 17.0 0.00 0.89 0.00 58 1003.4
20260507181519 46 313 7.0 17.0 0.00 0.89 0.00 51 1003.7
20260507181505 41 262 8.0 16.0 0.00 0.01 0.01 88 1004.2
20260507180016 45 353 11.0 22.0 0.00 0.89 0.00 50 1003.7
20260507180006 41 283 6.0 14.0 0.01 0.01 0.01 90 1004.3
20260507174516 46 355 7.0 22.0 0.00 0.89 0.00 46 1003.6
20260507174502 40 286 7.0 14.0 0.01 0.01 0.01 94 1004.4
20260507173101 38 277 7.0 12.0 0.01 0.01 0.01 94 1004.5
20260507173019 46 261 11.0 21.0 0.00 0.97 0.00 51 1003.7
20260507171549 38 262 6.0 14.0 0.01 0.01 0.01 92 1004.6
20260507171512 46 314 5.0 15.0 0.00 0.97 0.00 47 1003.8
20260507170046 39 257 6.0 15.0 0.00 0.00 0.00 91 1004.6
20260507170011 46 351 8.0 23.0 0.00 0.97 0.00 49 1003.7
20260507164542 39 247 8.0 15.0 0.00 0.00 0.00 93 1004.7
20260507164509 47 297 12.0 22.0 0.00 0.97 0.00 49 1003.7
20260507163055 49 289 10.0 18.0 0.00 1.05 0.00 49 1003.7
20260507163040 40 268 6.0 14.0 0.00 0.00 0.00 93 1004.6
20260507161606 49 304 6.0 17.0 0.00 1.05 0.00 49 1003.6
20260507161540 41 266 8.0 15.0 0.00 0.00 0.00 92 1004.4
20260507160039 42 259 8.0 15.0 0.00 0.00 0.00 92 1004.3
20260507154546 48 27 2.0 14.0 0.00 1.05 0.00 45 1004.1
20260507154540 42 277 6.0 12.0 0.00 0.00 0.00 93 1004.3
20260507153045 42 244 3.0 10.0 0.00 0.00 0.00 95 1004.4
20260507153043 47 295 1.0 10.0 0.00 1.12 0.00 38 1004.4
20260507151538 47 297 1.0 11.0 0.00 1.12 0.00 27 1004.6
20260507151521 42 265 4.0 10.0 0.00 0.00 0.00 95 1004.4
20260507150034 46 359 2.0 8.0 0.00 1.12 0.00 14 1004.7
20260507150019 41 257 6.0 15.0 0.00 0.00 0.00 96 1004.4
20260507144542 46 243 2.0 9.0 0.00 1.12 0.00 19 1004.9
20260507144517 42 272 6.0 14.0 0.00 0.00 0.00 96 1004.2
20260507143029 46 261 0.0 9.0 0.00 1.21 1.12 20 1004.9
20260507143014 41 249 7.0 14.0 0.00 0.00 0.00 97 1004.1
20260507141526 46 316 2.0 9.0 0.00 1.21 1.12 20 1005.0
20260507141511 41 240 6.0 13.0 0.00 0.00 0.00 98 1003.9
20260507140117 45 303 1.0 11.0 0.00 1.21 1.12 19 1005.1
20260507140010 41 250 5.0 10.0 0.00 0.00 0.00 98 1003.7
20260507134606 46 295 2.0 9.0 0.00 1.21 1.12 7 1005.1
20260507134509 40 261 7.0 13.0 0.00 0.00 0.00 98 1003.6
20260507133052 45 325 5.0 11.0 0.00 1.23 1.12 100 1005.2
20260507133006 40 255 5.0 10.0 0.00 0.00 0.00 99 1003.2
20260507131602 40 245 5.0 14.0 0.00 0.00 0.00 99 1002.7
20260507131537 44 282 6.0 13.0 0.00 1.23 1.12 100 1005.4
20260507130052 0 0.0 0.0 0.00 0.00 0.00 1002.5
20260507130039 43 272 2.0 9.0 0.00 1.23 1.12 100 1005.5
20260507124546 0 0.0 0.0 0.00 0.00 0.00 1002.6
20260507124527 43 261 2.0 8.0 0.00 1.23 1.12 100 1005.5
20260507123043 0 0.0 0.0 0.00 0.00 0.00 1002.4
20260507123032 43 251 0.0 10.0 0.00 1.23 1.12 100 1005.4
20260507121539 0 0.0 0.0 0.00 0.00 0.00 1002.6
20260507121518 42 304 5.0 11.0 0.00 1.23 1.12 100 1005.5
20260507120026 0 0.0 0.0 0.00 0.00 0.00 1002.8
20260507120014 42 285 1.0 8.0 0.00 1.23 1.12 100 1005.5
20260507114521 0 0.0 0.0 0.00 0.00 0.00 1002.8
20260507114509 41 290 0.0 9.0 0.00 1.23 1.12 100 1005.6
20260507113029 0 0.0 0.0 0.00 0.00 0.00 1002.8
20260507113006 41 266 0.0 7.0 0.00 1.23 1.12 100 1005.7
20260507111555 41 249 1.0 4.0 0.00 1.23 1.12 100 1005.6
20260507111502 0 0.0 0.0 0.00 0.00 0.00 1002.7
20260507110058 0 0.0 0.0 0.00 0.00 0.00 1002.8
20260507110040 41 285 1.0 4.0 0.00 1.23 1.12 100 1005.4
20260507104552 0 0.0 0.0 0.00 0.00 0.00 1002.5
20260507104524 40 233 2.0 6.0 0.00 1.23 1.12 100 1005.4
20260507103050 0 0.0 0.0 0.00 0.00 0.00 1002.4
20260507103020 40 341 0.0 4.0 0.00 1.23 1.12 100 1005.1
20260507101547 0 0.0 0.0 0.00 0.00 0.00 1002.3
20260507101517 40 256 1.0 6.0 0.00 1.23 1.12 100 1005.1
20260507100039 0 0.0 0.0 0.00 0.00 0.00 1002.2
20260507100013 40 295 1.0 6.0 0.00 1.23 1.12 100 1005.2
20260507094532 0 0.0 0.0 0.00 0.00 0.00 1002.3
20260507094506 40 307 0.0 6.0 0.00 1.23 1.12 100 1004.8
20260507093036 0 0.0 0.0 0.00 0.00 0.00 1002.2
20260507093002 40 312 0.0 4.0 0.00 1.23 1.12 100 1004.9
20260507091558 40 313 0.0 4.0 0.00 1.23 1.12 100 1004.8
20260507091508 0 0.0 0.0 0.00 0.00 0.00 1002.1
20260507090005 0 0.0 0.0 0.00 0.00 0.00 1002.1
20260507084600 0 0.0 0.0 0.00 0.00 0.00 1002.3
20260507084541 40 293 0.0 4.0 0.00 1.23 1.12 100 1004.7
20260507083102 0 0.0 0.0 0.00 0.00 0.00 1002.2
20260507083036 40 287 0.0 3.0 0.00 1.25 1.12 100 1004.6
20260507081551 0 0.0 0.0 0.00 0.00 0.00 1002.0
20260507081535 40 283 0.0 2.0 0.00 1.25 1.12 100 1004.8
20260507080113 0 0.0 0.0 0.00 0.00 0.00 1002.0
20260507080024 40 282 0.0 1.0 0.00 1.25 1.12 100 1004.7
20260507074546 0 0.0 0.0 0.00 0.00 0.00 1002.1
20260507074520 40 305 0.0 0.0 0.00 1.25 1.12 100 1004.6
20260507073038 0 0.0 0.0 0.00 0.00 0.00 1002.0
20260507073016 40 358 0.0 0.0 0.00 1.26 1.12 100 1004.5
20260507071518 0 0.0 0.0 0.00 0.00 0.00 1002.0
20260507071511 40 358 0.0 0.0 0.00 1.26 1.12 100 1004.4
20260507070014 0 0.0 0.0 0.00 0.00 0.00 1002.0
20260507070011 40 359 0.0 2.0 0.00 1.26 1.12 100 1004.2
20260507064603 41 18 1.0 7.0 0.00 1.26 1.12 100 1004.1
20260507064510 0 0.0 0.0 0.00 0.00 0.00 1002.1
20260507063041 41 348 2.0 10.0 0.00 1.30 1.12 100 1004.3
20260507063006 0 0.0 0.0 0.00 0.00 0.00 1002.0
20260507061527 41 329 2.0 5.0 0.00 1.30 1.12 100 1004.3
20260507061504 0 0.0 0.0 0.00 0.00 0.00 1002.1
20260507060021 41 338 1.0 12.0 0.00 1.30 1.12 100 1004.4
20260507054604 0 0.0 0.0 0.00 0.00 0.00 1002.3
20260507054516 41 49 0.0 4.0 0.00 1.30 1.12 100 1004.5
20260507053049 0 0.0 0.0 0.00 0.00 0.00 1002.7
20260507053013 41 2 0.0 7.0 0.00 1.31 1.12 100 1004.0
20260507051544 0 0.0 0.0 0.00 0.00 0.00 1002.6
20260507051508 42 20 0.0 9.0 0.00 1.31 1.12 100 1004.3
20260507050028 0 0.0 0.0 0.00 0.00 0.00 1002.8
20260507050008 42 351 6.0 11.0 0.00 1.31 1.12 100 1004.4
20260507044559 42 34 2.0 7.0 0.01 1.31 1.12 100 1004.5
20260507044522 0 0.0 0.0 0.00 0.00 0.00 1002.7
20260507043101 42 326 0.0 5.0 0.02 1.33 1.12 100 1004.6
20260507043018 0 0.0 0.0 0.00 0.00 0.00 1002.9
20260507041548 42 342 0.0 3.0 0.05 1.33 1.12 100 1004.6
20260507041513 0 0.0 0.0 0.00 0.00 0.00 1002.9
20260507040029 42 347 0.0 5.0 0.08 1.33 1.12 100 1004.5
20260507040008 0 0.0 0.0 0.00 0.00 0.00 1002.9
20260507034515 42 353 2.0 9.0 0.10 1.32 1.12 100 1004.6
20260507034504 0 0.0 0.0 0.00 0.00 0.00 1003.1
20260507033101 0 0.0 0.0 0.00 0.00 0.00 1003.3
20260507033012 42 346 3.0 11.0 0.12 1.31 1.11 100 1004.9
20260507031602 0 0.0 0.0 0.00 0.00 0.00 1003.5
20260507031505 43 200 0.0 6.0 0.11 1.28 1.08 100 1005.0
20260507030039 0 0.0 0.0 0.00 0.00 0.00 1003.4
20260507030000 43 318 2.0 7.0 0.10 1.25 1.05 100 1004.9